Satellite-Ground Cal/Val Site Overpasses Predictions

Prediction of Satellite NPP Overpassing Cal/Val Site: Antarctic Dome C

Ground Cal/Val Site Location: Latitude: -75.10, Longitude: 123.35; Satellite-Ground Site NADIR distance within 100 km.

Table of predicted overpasses for the next 14.0 days since TLE Epoch: 5/6/2023
Interval Starting Time Ending Time Minimum Distance Time Minimum Distance (km)
1 05/06/2023 14:56:54 05/06/2023 14:57:23 05/06/2023 14:57:08 16.45
2 05/07/2023 14:38:12 05/07/2023 14:38:24 05/07/2023 14:38:18 90.55
3 05/08/2023 07:39:42 05/08/2023 07:40:09 05/08/2023 07:39:55 36.60
4 05/09/2023 07:20:55 05/09/2023 07:21:14 05/09/2023 07:21:04 73.69
5 05/11/2023 15:03:05 05/11/2023 15:03:30 05/11/2023 15:03:18 53.04
6 05/12/2023 14:44:14 05/12/2023 14:44:38 05/12/2023 14:44:26 56.05
7 05/13/2023 07:45:54 05/13/2023 07:46:14 05/13/2023 07:46:04 71.49
8 05/14/2023 07:27:00 05/14/2023 07:27:27 05/14/2023 07:27:14 36.69
9 05/16/2023 15:09:20 05/16/2023 15:09:32 05/16/2023 15:09:26 90.29
10 05/17/2023 14:50:20 05/17/2023 14:50:49 05/17/2023 14:50:35 20.98
